Time,TemperatureF,DewpointF,PressureIn,WindDirection,WindDirectionDegrees,WindSpeedMPH,WindSpeedGustMPH,Humidity,HourlyPrecipIn,Conditions,Clouds,dailyrainin,SoftwareType,DateUTC
2013-04-16 00:02:00,53.6,47.2,30.00,SE,135,2.7,-999.0,79,-99.99,,,0.00,Acu-Link.com,2013-04-16 04:02:00,
2013-04-16 00:17:00,55.4,49.0,29.99,East,90,1.6,-999.0,79,-99.99,,,0.00,Acu-Link.com,2013-04-16 04:17:00,
2013-04-16 00:32:00,53.6,46.9,29.99,NE,45,2.7,-999.0,78,-99.99,,,0.00,Acu-Link.com,2013-04-16 04:32:00,
2013-04-16 00:48:00,55.4,48.3,30.00,ESE,112,2.0,-999.0,77,-99.99,,,0.00,Acu-Link.com,2013-04-16 04:48:00,
2013-04-16 01:03:00,55.4,47.6,29.99,South,180,5.1,-999.0,75,-99.99,,,0.00,Acu-Link.com,2013-04-16 05:03:00,
2013-04-16 01:18:00,55.4,47.3,29.98,South,180,3.1,-999.0,74,-99.99,,,0.00,Acu-Link.com,2013-04-16 05:18:00,
2013-04-16 01:33:00,57.2,48.3,29.97,South,180,2.7,-999.0,72,-99.99,,,0.00,Acu-Link.com,2013-04-16 05:33:00,
2013-04-16 01:48:00,57.2,48.3,29.98,SE,135,6.3,-999.0,72,-99.99,,,0.00,Acu-Link.com,2013-04-16 05:48:00,
2013-04-16 02:03:00,57.2,47.9,29.97,SE,135,6.3,-999.0,71,-99.99,,,0.00,Acu-Link.com,2013-04-16 06:03:00,
2013-04-16 02:19:00,57.2,48.3,29.96,South,180,4.0,-999.0,72,-99.99,,,0.00,Acu-Link.com,2013-04-16 06:19:00,
2013-04-16 02:34:00,57.2,48.3,29.96,NE,45,5.6,-999.0,72,-99.99,,,0.00,Acu-Link.com,2013-04-16 06:34:00,
2013-04-16 02:49:00,57.2,48.3,29.96,SSE,157,4.0,-999.0,72,-99.99,,,0.00,Acu-Link.com,2013-04-16 06:49:00,
2013-04-16 03:04:00,57.2,48.3,29.95,SSE,157,3.1,-999.0,72,-99.99,,,0.00,Acu-Link.com,2013-04-16 07:04:00,
2013-04-16 03:19:00,57.2,48.6,29.94,SE,135,2.7,-999.0,73,-99.99,,,0.00,Acu-Link.com,2013-04-16 07:19:00,
2013-04-16 03:34:00,55.4,46.9,29.94,SSE,157,3.1,-999.0,73,-99.99,,,0.00,Acu-Link.com,2013-04-16 07:34:00,
2013-04-16 03:49:00,55.4,47.3,29.94,East,90,1.6,-999.0,74,-99.99,,,0.00,Acu-Link.com,2013-04-16 07:49:00,
2013-04-16 04:05:00,55.4,47.3,29.95,SSW,202,3.1,-999.0,74,-99.99,,,0.00,Acu-Link.com,2013-04-16 08:05:00,
2013-04-16 04:20:00,57.2,49.3,29.95,NNE,22,3.6,-999.0,75,-99.99,,,0.00,Acu-Link.com,2013-04-16 08:20:00,
2013-04-16 04:35:00,55.4,47.6,29.95,West,270,3.1,-999.0,75,-99.99,,,0.00,Acu-Link.com,2013-04-16 08:35:00,
2013-04-16 04:50:00,55.4,48.0,29.97,WSW,247,1.1,-999.0,76,-99.99,,,0.00,Acu-Link.com,2013-04-16 08:50:00,
2013-04-16 05:05:00,55.4,48.0,29.97,ESE,112,3.6,-999.0,76,-99.99,,,0.00,Acu-Link.com,2013-04-16 09:05:00,
2013-04-16 05:21:00,55.4,48.3,29.96,SE,135,4.7,-999.0,77,-99.99,,,0.00,Acu-Link.com,2013-04-16 09:21:00,
2013-04-16 05:36:00,55.4,48.3,29.97,ESE,112,5.6,-999.0,77,-99.99,,,0.00,Acu-Link.com,2013-04-16 09:36:00,
2013-04-16 05:51:00,55.4,48.3,38.71,SE,135,3.1,-999.0,77,-99.99,,,0.00,Acu-Link.com,2013-04-16 09:51:00,
2013-04-16 06:06:00,55.4,48.3,29.96,SW,225,4.0,-999.0,77,-99.99,,,0.00,Acu-Link.com,2013-04-16 10:06:00,
2013-04-16 06:22:00,57.2,50.1,29.97,SSW,202,3.6,-999.0,77,-99.99,,,0.00,Acu-Link.com,2013-04-16 10:22:00,
2013-04-16 06:37:00,55.4,48.3,29.97,SE,135,3.6,-999.0,77,-99.99,,,0.00,Acu-Link.com,2013-04-16 10:37:00,
2013-04-16 06:52:00,57.2,50.1,29.98,West,270,4.7,-999.0,77,-99.99,,,0.00,Acu-Link.com,2013-04-16 10:52:00,
2013-04-16 07:07:00,57.2,49.7,29.98,SE,135,3.1,-999.0,76,-99.99,,,0.00,Acu-Link.com,2013-04-16 11:07:00,
2013-04-16 07:22:00,59.0,51.4,29.99,North,0,1.6,-999.0,76,-99.99,,,0.00,Acu-Link.com,2013-04-16 11:22:00,
2013-04-16 07:37:00,59.0,51.4,29.99,South,180,4.0,-999.0,76,-99.99,,,0.48,Acu-Link.com,2013-04-16 11:37:00,
2013-04-16 07:52:00,59.0,51.1,30.00,SW,225,4.7,-999.0,75,-99.99,,,0.48,Acu-Link.com,2013-04-16 11:52:00,
2013-04-16 08:07:00,60.8,52.1,29.99,East,90,6.3,-999.0,73,-99.99,,,0.48,Acu-Link.com,2013-04-16 12:07:00,
2013-04-16 08:23:00,60.8,52.1,30.01,SW,225,4.0,-999.0,73,-99.99,,,0.48,Acu-Link.com,2013-04-16 12:23:00,
2013-04-16 08:38:00,60.8,52.1,30.03,SW,225,2.0,-999.0,73,-99.99,,,0.48,Acu-Link.com,2013-04-16 12:38:00,
2013-04-16 08:53:00,60.8,51.7,30.04,SSW,202,2.0,-999.0,72,-99.99,,,0.48,Acu-Link.com,2013-04-16 12:53:00,
2013-04-16 09:09:00,60.8,51.7,30.04,ESE,112,2.7,-999.0,72,-99.99,,,0.48,Acu-Link.com,2013-04-16 13:09:00,
2013-04-16 09:24:00,60.8,51.7,30.05,SE,135,0.0,-999.0,72,-99.99,,,0.48,Acu-Link.com,2013-04-16 13:24:00,
2013-04-16 09:39:00,60.8,54.2,30.04,ESE,112,0.0,-999.0,79,-99.99,,,0.48,Acu-Link.com,2013-04-16 13:39:00,
2013-04-16 09:54:00,59.0,54.8,30.03,SE,135,1.6,-999.0,86,-99.99,,,0.49,Acu-Link.com,2013-04-16 13:54:00,
2013-04-16 10:10:00,59.0,55.8,30.03,ESE,112,3.1,-999.0,89,-99.99,,,0.55,Acu-Link.com,2013-04-16 14:10:00,
2013-04-16 10:25:00,59.0,55.8,30.03,SW,225,2.0,-999.0,89,-99.99,,,0.55,Acu-Link.com,2013-04-16 14:25:00,
2013-04-16 10:40:00,60.8,55.9,30.04,SE,135,2.0,-999.0,84,-99.99,,,0.55,Acu-Link.com,2013-04-16 14:40:00,
2013-04-16 10:55:00,60.8,55.3,30.05,WSW,247,2.7,-999.0,82,-99.99,,,0.55,Acu-Link.com,2013-04-16 14:55:00,
2013-04-16 11:11:00,62.6,55.3,30.05,WSW,247,2.7,-999.0,77,-99.99,,,0.55,Acu-Link.com,2013-04-16 15:11:00,
2013-04-16 11:41:00,66.2,56.9,30.06,SW,225,3.1,-999.0,72,-99.99,,,0.55,Acu-Link.com,2013-04-16 15:41:00,
2013-04-16 11:57:00,68.0,57.8,30.05,SW,225,2.7,-999.0,70,-99.99,,,0.55,Acu-Link.com,2013-04-16 15:57:00,
2013-04-16 12:12:00,68.0,58.6,30.04,SW,225,3.6,-999.0,72,-99.99,,,0.55,Acu-Link.com,2013-04-16 16:12:00,
2013-04-16 12:27:00,68.0,58.2,30.02,ESE,112,2.7,-999.0,71,-99.99,,,0.55,Acu-Link.com,2013-04-16 16:27:00,
2013-04-16 12:42:00,69.8,59.2,30.02,SSW,202,5.6,-999.0,69,-99.99,,,0.55,Acu-Link.com,2013-04-16 16:42:00,
2013-04-16 12:58:00,69.8,59.2,30.02,SW,225,1.1,-999.0,69,-99.99,,,0.55,Acu-Link.com,2013-04-16 16:58:00,
2013-04-16 13:13:00,68.0,58.6,30.03,West,270,2.0,-999.0,72,-99.99,,,0.55,Acu-Link.com,2013-04-16 17:13:00,
2013-04-16 13:28:00,62.6,54.9,30.05,WNW,292,3.6,-999.0,76,-99.99,,,0.55,Acu-Link.com,2013-04-16 17:28:00,
2013-04-16 13:44:00,59.0,53.5,30.07,West,270,3.6,-999.0,82,-99.99,,,0.57,Acu-Link.com,2013-04-16 17:44:00,
2013-04-16 13:59:00,59.0,53.8,30.06,SSE,157,1.6,-999.0,83,-99.99,,,0.57,Acu-Link.com,2013-04-16 17:59:00,
2013-04-16 14:14:00,60.8,54.2,30.08,WNW,292,6.3,-999.0,79,-99.99,,,0.57,Acu-Link.com,2013-04-16 18:14:00,
2013-04-16 14:29:00,60.8,54.6,30.07,South,180,2.0,-999.0,80,-99.99,,,0.57,Acu-Link.com,2013-04-16 18:29:00,
2013-04-16 14:44:00,60.8,53.5,30.08,West,270,2.0,-999.0,77,-99.99,,,0.57,Acu-Link.com,2013-04-16 18:44:00,
2013-04-16 15:00:00,60.8,52.8,30.08,WSW,247,2.7,-999.0,75,-99.99,,,0.57,Acu-Link.com,2013-04-16 19:00:00,
2013-04-16 15:15:00,60.8,53.5,30.08,West,270,2.7,-999.0,77,-99.99,,,0.57,Acu-Link.com,2013-04-16 19:15:00,
2013-04-16 15:30:00,62.6,53.4,30.09,NW,315,2.7,-999.0,72,-99.99,,,0.57,Acu-Link.com,2013-04-16 19:30:00,
2013-04-16 15:45:00,62.6,53.4,30.08,West,270,3.6,-999.0,72,-99.99,,,0.57,Acu-Link.com,2013-04-16 19:45:00,
2013-04-16 16:01:00,59.0,51.1,30.09,WNW,292,2.0,-999.0,75,-99.99,,,0.57,Acu-Link.com,2013-04-16 20:01:00,
2013-04-16 16:16:00,60.8,51.7,30.10,North,0,3.1,-999.0,72,-99.99,,,0.57,Acu-Link.com,2013-04-16 20:16:00,
2013-04-16 16:31:00,57.2,49.7,30.11,WNW,292,3.6,-999.0,76,-99.99,,,0.57,Acu-Link.com,2013-04-16 20:31:00,
2013-04-16 17:01:00,53.6,47.2,30.13,West,270,4.0,-999.0,79,-99.99,,,0.57,Acu-Link.com,2013-04-16 21:01:00,
2013-04-16 17:17:00,53.6,47.6,30.14,NNW,337,5.6,-999.0,80,-99.99,,,0.57,Acu-Link.com,2013-04-16 21:17:00,
2013-04-16 17:32:00,53.6,47.6,30.15,NW,315,3.1,-999.0,80,-99.99,,,0.57,Acu-Link.com,2013-04-16 21:32:00,
2013-04-16 17:47:00,51.8,46.8,30.15,South,180,0.0,-999.0,83,-99.99,,,0.57,Acu-Link.com,2013-04-16 21:47:00,
2013-04-16 18:02:00,51.8,47.1,30.15,NW,315,2.0,-999.0,84,-99.99,,,0.57,Acu-Link.com,2013-04-16 22:02:00,
2013-04-16 18:17:00,51.8,47.4,30.15,WNW,292,1.1,-999.0,85,-99.99,,,0.57,Acu-Link.com,2013-04-16 22:17:00,
2013-04-16 18:33:00,51.8,48.4,30.15,SW,225,0.0,-999.0,88,-99.99,,,0.60,Acu-Link.com,2013-04-16 22:33:00,
2013-04-16 18:48:00,51.8,49.0,30.15,SW,225,0.0,-999.0,90,-99.99,,,0.63,Acu-Link.com,2013-04-16 22:48:00,
2013-04-16 19:03:00,51.8,49.6,30.15,SW,225,0.0,-999.0,92,-99.99,,,0.68,Acu-Link.com,2013-04-16 23:03:00,
2013-04-16 19:18:00,51.8,49.6,30.14,ESE,112,0.0,-999.0,92,-99.99,,,0.70,Acu-Link.com,2013-04-16 23:18:00,
2013-04-16 19:33:00,51.8,49.8,30.14,SW,225,2.0,-999.0,93,-99.99,,,0.72,Acu-Link.com,2013-04-16 23:33:00,
2013-04-16 19:48:00,51.8,50.1,30.15,SE,135,0.0,-999.0,94,-99.99,,,0.73,Acu-Link.com,2013-04-16 23:48:00,
2013-04-16 20:03:00,51.8,50.1,30.16,SE,135,1.1,-999.0,94,-99.99,,,0.73,Acu-Link.com,2013-04-17 00:03:00,
2013-04-16 20:18:00,51.8,50.1,30.17,East,90,0.0,-999.0,94,-99.99,,,0.73,Acu-Link.com,2013-04-17 00:18:00,
2013-04-16 20:34:00,51.8,50.4,30.17,ESE,112,0.0,-999.0,95,-99.99,,,0.73,Acu-Link.com,2013-04-17 00:34:00,
2013-04-16 20:49:00,51.8,50.4,30.16,WNW,292,0.0,-999.0,95,-99.99,,,0.73,Acu-Link.com,2013-04-17 00:49:00,
2013-04-16 21:04:00,50.0,48.6,30.17,East,90,0.0,-999.0,95,-99.99,,,0.73,Acu-Link.com,2013-04-17 01:04:00,
2013-04-16 21:19:00,50.0,48.6,30.18,West,270,0.0,-999.0,95,-99.99,,,0.73,Acu-Link.com,2013-04-17 01:19:00,
2013-04-16 21:34:00,50.0,48.6,30.18,SSW,202,0.0,-999.0,95,-99.99,,,0.73,Acu-Link.com,2013-04-17 01:34:00,
2013-04-16 21:49:00,50.0,48.9,30.18,South,180,0.0,-999.0,96,-99.99,,,0.73,Acu-Link.com,2013-04-17 01:49:00,
2013-04-16 22:04:00,50.0,48.9,30.17,ESE,112,1.1,-999.0,96,-99.99,,,0.73,Acu-Link.com,2013-04-17 02:04:00,
2013-04-16 22:20:00,50.0,49.2,30.17,WNW,292,0.0,-999.0,97,-99.99,,,0.73,Acu-Link.com,2013-04-17 02:20:00,
2013-04-16 22:35:00,50.0,49.2,30.18,WNW,292,0.0,-999.0,97,-99.99,,,0.73,Acu-Link.com,2013-04-17 02:35:00,
2013-04-16 22:50:00,50.0,49.2,30.18,WNW,292,0.0,-999.0,97,-99.99,,,0.73,Acu-Link.com,2013-04-17 02:50:00,
2013-04-16 23:05:00,50.0,49.2,30.18,WNW,292,0.0,-999.0,97,-99.99,,,0.73,Acu-Link.com,2013-04-17 03:05:00,